| time (UTC) | temp F | wind direction | speed MPH | gust MPH | rain 1hr in | rain 24hr in | rain mn in | humidity % | barometer mb |
| 20260504110426 | 71 | 39 | 4.0 | 3.0 | 0.00 | 0.00 | 0.00 | 64 | 1013.0 |
| 20260504100424 | 71 | 39 | 4.0 | 3.0 | 0.00 | 0.00 | 0.00 | 64 | 1013.0 |
| 20260504081420 | 75 | 107 | 1.0 | 1.0 | 0.00 | 0.00 | 0.00 | 51 | 1013.0 |
| 20260504080420 | 75 | 107 | 1.0 | 1.0 | 0.00 | 0.00 | 0.00 | 51 | 1013.0 |
| 20260504050415 | 75 | 107 | 2.0 | 1.0 | 0.00 | 0.00 | 0.00 | 51 | 1014.0 |
| 20260504045414 | 78 | 227 | 1.0 | 3.0 | 0.00 | 0.00 | 0.00 | 50 | 1014.0 |
| 20260504044414 | 78 | 227 | 1.0 | 3.0 | 0.00 | 0.00 | 0.00 | 50 | 1014.0 |
| 20260504043414 | 78 | 227 | 1.0 | 3.0 | 0.00 | 0.00 | 0.00 | 50 | 1014.0 |
| 20260504042414 | 78 | 227 | 1.0 | 3.0 | 0.00 | 0.00 | 0.00 | 50 | 1014.0 |
| 20260504041413 | 78 | 227 | 1.0 | 3.0 | 0.00 | 0.00 | 0.00 | 50 | 1014.0 |
| 20260504040413 | 78 | 227 | 1.0 | 3.0 | 0.00 | 0.00 | 0.00 | 50 | 1014.0 |
| 20260504035412 | 78 | 227 | 1.0 | 3.0 | 0.00 | 0.00 | 0.00 | 50 | 1014.0 |
| 20260504034412 | 78 | 227 | 1.0 | 3.0 | 0.00 | 0.00 | 0.00 | 50 | 1014.0 |
| 20260504033412 | 78 | 227 | 1.0 | 3.0 | 0.00 | 0.00 | 0.00 | 50 | 1014.0 |
| 20260504032412 | 78 | 227 | 1.0 | 3.0 | 0.00 | 0.00 | 0.00 | 50 | 1014.0 |
| 20260504031411 | 78 | 227 | 1.0 | 3.0 | 0.00 | 0.00 | 0.00 | 50 | 1014.0 |
| 20260504030412 | 78 | 227 | 1.0 | 3.0 | 0.00 | 0.00 | 0.00 | 50 | 1014.0 |
| 20260504025411 | 78 | 227 | 1.0 | 3.0 | 0.00 | 0.00 | 0.00 | 50 | 1014.0 |
| 20260504024411 | 78 | 227 | 1.0 | 3.0 | 0.00 | 0.00 | 0.00 | 50 | 1014.0 |
| 20260504023410 | 78 | 227 | 1.0 | 3.0 | 0.00 | 0.00 | 0.00 | 50 | 1014.0 |
| 20260504022410 | 78 | 227 | 1.0 | 3.0 | 0.02 | 0.00 | 0.00 | 50 | 1013.0 |
| 20260504021409 | 78 | 227 | 1.0 | 3.0 | 0.02 | 0.00 | 0.00 | 50 | 1013.0 |
| 20260504020409 | 78 | 227 | 1.0 | 3.0 | 0.02 | 0.00 | 0.00 | 50 | 1013.0 |
| 20260504015409 | 78 | 227 | 1.0 | 3.0 | 0.09 | 0.00 | 0.00 | 50 | 1013.0 |
| 20260504014409 | 78 | 227 | 2.0 | 3.0 | 0.11 | 0.00 | 0.00 | 50 | 1012.0 |
| 20260504013408 | 84 | 222 | 4.0 | 5.0 | 0.11 | 0.00 | 0.00 | 37 | 1012.0 |
| 20260504012408 | 84 | 222 | 4.0 | 5.0 | 0.13 | 0.00 | 0.00 | 37 | 1011.0 |
| 20260504011408 | 84 | 222 | 4.0 | 5.0 | 0.12 | 0.00 | 0.00 | 37 | 1011.0 |
| 20260504010407 | 84 | 222 | 4.0 | 5.0 | 0.11 | 0.00 | 0.00 | 37 | 1011.0 |
| 20260504005407 | 84 | 222 | 4.0 | 5.0 | 0.01 | 0.00 | 0.00 | 37 | 1011.0 |
| 20260504004407 | 84 | 222 | 4.0 | 5.0 | 0.01 | 0.00 | 0.00 | 37 | 1011.0 |
| 20260504003406 | 84 | 222 | 4.0 | 5.0 | 0.02 | 0.00 | 0.00 | 37 | 1011.0 |
| 20260504002406 | 84 | 222 | 4.0 | 5.0 | 0.00 | 0.00 | 0.00 | 37 | 1010.0 |
| 20260504001406 | 84 | 222 | 4.0 | 5.0 | 0.00 | 0.00 | 0.00 | 37 | 1010.0 |
| 20260504000406 | 84 | 222 | 4.0 | 5.0 | 0.00 | 0.00 | 0.00 | 37 | 1010.0 |
| 20260503235405 | 84 | 222 | 4.0 | 5.0 | 0.00 | 0.00 | 0.00 | 37 | 1010.0 |
| 20260503234405 | 84 | 222 | 4.0 | 5.0 | 0.00 | 0.00 | 0.00 | 37 | 1010.0 |
| 20260503233405 | 84 | 222 | 4.0 | 5.0 | 0.00 | 0.00 | 0.00 | 37 | 1010.0 |
| 20260503232404 | 84 | 222 | 4.0 | 5.0 | 0.00 | 0.00 | 0.00 | 37 | 1009.0 |
| 20260503231404 | 84 | 222 | 4.0 | 5.0 | 0.00 | 0.00 | 0.00 | 37 | 1009.0 |
| 20260503230404 | 84 | 222 | 4.0 | 5.0 | 0.00 | 0.00 | 0.00 | 37 | 1009.0 |
| 20260503225403 | 84 | 222 | 4.0 | 5.0 | 0.00 | 0.00 | 0.00 | 37 | 1009.0 |
| 20260503224403 | 84 | 222 | 4.0 | 5.0 | 0.00 | 0.00 | 0.00 | 37 | 1009.0 |
| 20260503223403 | 84 | 222 | 4.0 | 5.0 | 0.00 | 0.00 | 0.00 | 37 | 1009.0 |
| 20260503222402 | 84 | 222 | 4.0 | 5.0 | 0.00 | 0.00 | 0.00 | 37 | 1009.0 |
| 20260503221402 | 84 | 222 | 4.0 | 5.0 | 0.00 | 0.00 | 0.00 | 37 | 1009.0 |
| 20260503220402 | 84 | 222 | 4.0 | 5.0 | 0.00 | 0.00 | 0.00 | 37 | 1009.0 |
| 20260503215401 | 84 | 222 | 4.0 | 5.0 | 0.00 | 0.00 | 0.00 | 37 | 1009.0 |
| 20260503214401 | 84 | 222 | 4.0 | 5.0 | 0.00 | 0.00 | 0.00 | 37 | 1009.0 |
| 20260503213401 | 84 | 222 | 4.0 | 5.0 | 0.00 | 0.00 | 0.00 | 37 | 1009.0 |
| 20260503212400 | 84 | 222 | 4.0 | 5.0 | 0.00 | 0.00 | 0.00 | 37 | 1009.0 |
| 20260503211400 | 84 | 222 | 4.0 | 5.0 | 0.00 | 0.00 | 0.00 | 37 | 1009.0 |
| 20260503210400 | 84 | 222 | 4.0 | 5.0 | 0.00 | 0.00 | 0.00 | 37 | 1009.0 |
| 20260503205400 | 84 | 222 | 4.0 | 5.0 | 0.00 | 0.00 | 0.00 | 37 | 1009.0 |
| 20260503204359 | 84 | 222 | 4.0 | 5.0 | 0.00 | 0.00 | 0.00 | 37 | 1009.0 |
| 20260503203359 | 84 | 222 | 4.0 | 5.0 | 0.00 | 0.00 | 0.00 | 37 | 1009.0 |
| 20260503202359 | 85 | 222 | 4.0 | 5.0 | 0.00 | 0.00 | 0.00 | 37 | 1010.0 |
| 20260503201359 | 84 | 222 | 4.0 | 5.0 | 0.00 | 0.00 | 0.00 | 38 | 1010.0 |
| 20260503200358 | 85 | 222 | 4.0 | 5.0 | 0.00 | 0.00 | 0.00 | 38 | 1010.0 |
| 20260503195358 | 84 | 222 | 4.0 | 5.0 | 0.00 | 0.00 | 0.00 | 39 | 1010.0 |
| 20260503194358 | 84 | 222 | 4.0 | 5.0 | 0.00 | 0.00 | 0.00 | 39 | 1010.0 |
| 20260503193358 | 84 | 222 | 4.0 | 5.0 | 0.00 | 0.00 | 0.00 | 39 | 1010.0 |
| 20260503192357 | 84 | 232 | 2.0 | 5.0 | 0.00 | 0.00 | 0.00 | 38 | 1011.0 |
| 20260503191357 | 84 | 232 | 2.0 | 5.0 | 0.00 | 0.00 | 0.00 | 39 | 1011.0 |
| 20260503190356 | 84 | 232 | 2.0 | 5.0 | 0.00 | 0.00 | 0.00 | 39 | 1011.0 |
| 20260503185356 | 83 | 232 | 2.0 | 5.0 | 0.00 | 0.00 | 0.00 | 39 | 1011.0 |
| 20260503184356 | 83 | 232 | 2.0 | 5.0 | 0.00 | 0.00 | 0.00 | 40 | 1011.0 |
| 20260503183355 | 83 | 232 | 2.0 | 5.0 | 0.00 | 0.00 | 0.00 | 40 | 1011.0 |
| 20260503182355 | 83 | 231 | 1.0 | 8.0 | 0.00 | 0.00 | 0.00 | 40 | 1012.0 |
| 20260503181355 | 83 | 231 | 1.0 | 8.0 | 0.00 | 0.00 | 0.00 | 40 | 1012.0 |
| 20260503180354 | 83 | 231 | 1.0 | 8.0 | 0.00 | 0.00 | 0.00 | 40 | 1012.0 |
| 20260503175354 | 83 | 231 | 1.0 | 8.0 | 0.00 | 0.00 | 0.00 | 40 | 1012.0 |
| 20260503174354 | 83 | 231 | 1.0 | 8.0 | 0.00 | 0.00 | 0.00 | 41 | 1012.0 |
| 20260503173353 | 83 | 231 | 1.0 | 8.0 | 0.00 | 0.00 | 0.00 | 41 | 1012.0 |
| 20260503172353 | 81 | 268 | 0.0 | 10.0 | 0.00 | 0.00 | 0.00 | 43 | 1013.0 |
| 20260503171353 | 81 | 268 | 0.0 | 10.0 | 0.00 | 0.00 | 0.00 | 43 | 1013.0 |
| 20260503170352 | 81 | 268 | 0.0 | 10.0 | 0.00 | 0.00 | 0.00 | 43 | 1013.0 |
| 20260503150348 | 77 | 327 | 2.0 | 7.0 | 0.00 | 0.00 | 0.00 | 64 | 1014.0 |
| 20260503131345 | 73 | 162 | 1.0 | 1.0 | 0.00 | 0.00 | 0.00 | 70 | 1014.0 |
| 20260503130344 | 73 | 162 | 1.0 | 1.0 | 0.00 | 0.00 | 0.00 | 70 | 1014.0 |